This demonstration page uses our WeatherBlox Daily Observations layout. Learn more.

Left ArrowRight Arrow

39.51506, -84.39828

Hourly Observations for September 4, 2015

Temp ( °F °C ) Dew Point ( °F °C ) Humidity (%) Winds ( mph kmh ) Pressure ( in mb ) Visibility ( mi km ) Precip ( " mm )
12:15 am 00:15 Clear 72 22.3 69 20.4 89 89 Calm 29.94 1014 7 11.26538 0 0
12:35 am 00:35 Clear 73 22.5 69 20.5 89 89 Calm 29.94 1014 7 11.26538 0 0
12:55 am 00:55 Clear 71 21.6 67 19.7 89 89 Calm 29.94 1014 7 11.26538 0 0
1:15 am 01:15 Clear 71 21.6 67 19.7 89 89 Calm 29.94 1014 7 11.26538 0 0
1:35 am 01:35 Clear with Mist and Fog 71 21.6 67 19.7 89 89 Calm 29.94 1014 5 8.0467 0 0
1:55 am 01:55 Clear with Mist and Fog 69 20.8 66 19 90 90 Calm 29.94 1014 3 4.82802 0 0
2:15 am 02:15 Clear with Mist and Fog 69 20.8 66 19 90 90 Calm 29.94 1014 5 8.0467 0 0
2:35 am 02:35 Clear with Mist and Fog 69 20.8 66 19 90 90 Calm 29.94 1014 4 6.43736 0 0
2:55 am 02:55 Clear with Mist and Fog 69 20.8 66 19 90 90 Calm 29.97 1015 4 6.43736 0 0
3:15 am 03:15 Clear with Mist and Fog 69 20.8 66 19 90 90 Calm 29.97 1015 4 6.43736 0 0
3:35 am 03:35 Mostly Cloudy with Mist and Fog 69 20.8 66 19 90 90 Calm 29.97 1015 1 1.60934 0 0
3:55 am 03:55 Partly Cloudy with Mist and Fog 69 20.8 66 19.1 90 90 Calm 29.97 1015 3 4.82802 0 0
4:15 am 04:15 Clear with Mist and Fog 69 20.8 66 19.1 90 90 Calm 29.97 1015 3 4.82802 0 0
4:35 am 04:35 Mostly Cloudy with Mist and Fog 69 20.8 67 19.2 91 91 Calm 29.97 1015 0.75 1.207005 0 0
4:55 am 04:55 Clear with Mist and Fog 69 20.8 67 19.3 91 91 Calm 29.97 1015 2 3.21868 0 0
5:15 am 05:15 Partly Cloudy with Mist and Fog 69 20.8 67 19.2 91 91 Calm 29.97 1015 2.5 4.02335 0 0
5:35 am 05:35 Mostly Cloudy with Mist and Fog 69 20.8 67 19.3 91 91 Calm 29.97 1015 3 4.82802 0 0
5:55 am 05:55 Cloudy with Mist and Fog 69 20.8 67 19.3 91 91 Calm 29.97 1015 3 4.82802 0 0
6:15 am 06:15 Mostly Cloudy with Mist and Fog 69 20.8 67 19.3 91 91 Calm 30 1016 4 6.43736 0 0
6:35 am 06:35 Partly Cloudy with Mist and Fog 69 20.8 67 19.3 91 91 Calm 30 1016 4 6.43736 0 0
6:55 am 06:55 Clear with Mist and Fog 69 20.8 67 19.3 91 91 Calm 30 1016 3 4.82802 0 0
7:15 am 07:15 Sunny with Mist and Fog 69 20.8 67 19.3 91 91 Calm 30 1016 3 4.82802 0 0
7:35 am 07:35 Sunny with Mist and Fog 69 20.8 67 19.3 91 91 Calm 30 1016 3 4.82802 0 0
7:55 am 07:55 Mostly Cloudy with Mist and Fog 69 20.8 67 19.3 91 91 Calm 30.03 1017 1 1.60934 0 0
8:15 am 08:15 Mostly Cloudy with Mist and Fog 69 20.8 67 19.3 91 91 Calm 30.03 1017 1.5 2.41401 0 0
8:35 am 08:35 Sunny with Mist and Fog 69 20.8 67 19.3 91 91 Calm 30.03 1017 2.5 4.02335 0 0
8:55 am 08:55 Sunny with Mist and Fog 74 23.6 72 22 91 91 Calm 30.03 1017 4 6.43736 0 0
9:15 am 09:15 Hazy 74 23.6 70 21.3 87 87 Calm 30.03 1017 5 8.0467 0 0
9:35 am 09:35 Sunny 77 25.1 71 21.5 81 81 Calm 30.03 1017 7 11.26538 0 0
9:55 am 09:55 Sunny 79 26 71 21.4 76 76 Calm 30.03 1017 7 11.26538 0 0
10:15 am 10:15 Sunny 80 26.5 69 20.8 71 71 Calm 30.03 1017 10 16.0934 0 0
10:35 am 10:35 Sunny 80 26.5 69 20.6 70 70 Calm 30.03 1017 10 16.0934 0 0
10:55 am 10:55 Sunny 81 27.2 70 20.9 69 69 Calm 30.03 1017 10 16.0934 0 0
11:15 am 11:15 Sunny 82 28 70 21.1 66 66 Calm 30.03 1017 10 16.0934 0 0
11:35 am 11:35 Sunny 84 28.8 70 21.3 64 64 SSW 3 6 30 1016 10 16.0934 0 0
11:55 am 11:55 Sunny 90 32 73 22.9 59 59 SW 6 9 30 1016 10 16.0934 0 0
12:15 pm 12:15 Sunny 90 32.1 72 22.1 55 55 SW 6 9 30 1016 10 16.0934 0 0
12:35 pm 12:35 Sunny 90 32.1 69 20.3 50 50 SW 5 7 30 1016 10 16.0934 0 0
12:55 pm 12:55 Sunny 90 32.1 67 19.5 47 47 SW 6 9 30 1016 10 16.0934 0 0
1:15 pm 13:15 Sunny 90 32.2 67 19.6 47 47 W 7 11 30 1016 10 16.0934 0 0
1:35 pm 13:35 Sunny 90 32.3 66 18.8 45 45 SW 7 11 29.97 1015 10 16.0934 0 0
1:55 pm 13:55 Sunny 94 34.3 66 19 40 40 W 9 15 29.97 1015 10 16.0934 0 0
2:15 pm 14:15 Partly Cloudy 95 35 67 19.3 40 40 SW 7 11 29.97 1015 10 16.0934 0 0
2:35 pm 14:35 Partly Cloudy 95 35 64 18 36 36 SW 7 11 29.97 1015 10 16.0934 0 0
2:55 pm 14:55 Sunny 95 35 63 17.1 34 34 W 6 9 29.97 1015 10 16.0934 0 0
3:15 pm 15:15 Partly Cloudy 95 35 66 18.7 38 38 WSW 7 11 29.97 1015 10 16.0934 0 0
3:35 pm 15:35 Sunny 95 35 63 17.4 35 35 WSW 8 13 29.97 1015 10 16.0934 0 0
3:55 pm 15:55 Sunny 95 35 66 18.7 38 38 SW 6 9 29.94 1014 10 16.0934 0 0
4:15 pm 16:15 Sunny 95 35 66 18.7 38 38 WNW 5 7 29.94 1014 10 16.0934 0 0
4:35 pm 16:35 Partly Cloudy 95 35 64 17.7 36 36 WNW 7 11 29.94 1014 10 16.0934 0 0
4:55 pm 16:55 Sunny 95 35 66 18.8 38 38 NW 5 7 29.94 1014 10 16.0934 0 0
5:15 pm 17:15 Mostly Cloudy 82 28 63 17.2 52 52 NE 16 26 30 1016 10 16.0934 0 0
5:35 pm 17:35 Partly Cloudy 80 26.5 64 18 60 60 NE 18 30 30.03 1017 10 16.0934 0 0
5:55 pm 17:55 Partly Cloudy 77 25.1 65 18.1 65 65 E 13 20 30.03 1017 10 16.0934 0 0
6:15 pm 18:15 Mostly Cloudy with Light Rain 77 25.1 67 19.5 71 71 SSE 7 11 30.03 1017 7 11.26538 0 0
6:35 pm 18:35 Mostly Cloudy 77 25.1 67 19.4 71 71 SSE 3 6 30.06 1018 10 16.0934 0 0
6:55 pm 18:55 Partly Cloudy with Light Rain 74 23.6 67 19.4 77 77 Calm 30.03 1017 10 16.0934 0 0
7:15 pm 19:15 Mostly Cloudy with Light Rain 74 23.6 69 20.6 83 83 Calm 30.03 1017 10 16.0934 0 0
7:35 pm 19:35 Cloudy with Heavy Rain 74 23.6 68 20.1 81 81 N 14 22 30.12 1020 10 16.0934 0 0
7:55 pm 19:55 Cloudy with Rain 69 20.8 64 18 84 84 N 10 17 30.12 1020 2 3.21868 0 0
8:15 pm 20:15 Mostly Cloudy with Light Rain 69 20.8 64 18 84 84 ENE 6 9 30.09 1019 10 16.0934 0 0
8:35 pm 20:35 Mostly Cloudy with Light Rain 69 20.8 64 18 84 84 Calm 30.12 1020 10 16.0934 0 0
8:55 pm 20:55 Mostly Cloudy with Rain 69 20.8 65 18.2 85 85 Calm 30.09 1019 10 16.0934 0 0
9:15 pm 21:15 Mostly Cloudy with Light Rain 69 20.8 65 18.1 85 85 S 3 6 30.12 1020 10 16.0934 0 0
9:35 pm 21:35 Mostly Cloudy with Light Rain 69 20.8 64 18 84 84 SSW 3 6 30.09 1019 10 16.0934 0 0
9:55 pm 21:55 Partly Cloudy with Light Rain 71 21.6 65 18.6 83 83 S 6 9 30.09 1019 10 16.0934 0 0
10:15 pm 22:15 Mostly Cloudy with Light Rain 71 21.6 66 19 85 85 Calm 30.06 1018 10 16.0934 0 0
10:35 pm 22:35 Mostly Cloudy 71 21.5 65 18.6 84 84 N 7 11 30.06 1018 10 16.0934 0 0
10:55 pm 22:55 Mostly Cloudy 69 20.8 64 18 84 84 Calm 30.06 1018 10 16.0934 0 0
11:15 pm 23:15 Partly Cloudy 71 21.4 65 18.4 83 83 Calm 30.06 1018 10 16.0934 0 0
11:35 pm 23:35 Clear 69 20.8 65 18.1 85 85 W 3 6 30.09 1019 10 16.0934 0 0
11:55 pm 23:55 Clear 69 20.8 64 17.8 83 83 Calm 30.09 1019 10 16.0934 0 0

Powered by AerisWeather